Location: *
(24.1434°N, 56.8729°E)
Time: 09:09:35
(UTC+00:00)

STARLINK-1111 - Pass Details

Date: 09 April 2020
Orbit: 548 x 551 km, 53.0° (Epoch: 30 May)

Event Time Altitude Azimuth Distance (km) Brightness Sun altitude
Rises 14:48:44 0° 326° (NNW) 2,719 7.9 -4.6°
Reaches altitude 10° 14:51:01 10° 331° (NNW) 1,824 6.9 -5.1°
Maximum altitude 14:55:05 53° 49° (NE) 677 3.9 -6.0°
Drops below altitude 10° 14:59:07 10° 127° (SE) 1,816 5.7 -6.9°
Enters shadow 14:59:59 - 129° (SE) 2,153 6.1 -7.1°
